Preview of NWS' New Version of Forecast
This preview is not operational and should not be used for support decisions.

Regional Weather Roundup (RWR)

Issued by National Weather Service (NWS)

                            
000
ASUS43 KMKX 221359
RWRWI 

WISCONSIN REGIONAL WEATHER ROUNDUP
NATIONAL WEATHER SERVICE MILWAUKEE/SULLIVAN WI
900 AM CDT MON APR 22 2019

NOTE: "FAIR" INDICATES FEW OR NO CLOUDS BELOW 12,000 FEET WITH NO
SIGNIFICANT WEATHER AND/OR OBSTRUCTIONS TO VISIBILITY.

WIZ001-002-006>008-014>016-023>028-221500-
NORTHWEST WISCONSIN
  
CITY           SKY/WX    TMP DP  RH WIND       PRES   REMARKS
SUPERIOR ARPT  RAIN      36  35  96 NE10G17   30.13R WCI  28          
ASHLAND        RAIN      38  37  97 NE13      30.13R FOG     WCI  30  
HAYWARD        LGT RAIN  41  39  93 NE10      30.05R                  
SIREN          LGT SNOW  42  41  96 NE9       30.07R                  
CUMBERLAND     LGT RAIN  41  41 100 N14       29.99S                  
RICE LAKE      CLOUDY    45  37  74 N10       30.01R                  
CHETEK         CLOUDY    46  41  85 NE5       29.97S                  
LADYSMITH      CLOUDY    45  42  91 NE10      30.00F                  
EAU CLAIRE     NOT AVBL                                               
MENOMONIE      FAIR      48  34  58 NE10      29.93F                  
NEW RICHMOND   RAIN      44  42  91 N9        29.99R                  
OSCEOLA        CLOUDY    45  43  93 NW6G20    30.02R                  
$$
 
WIZ003>005-009-010-017-018-221500-
NORTH CENTRAL WISCONSIN
  
CITY           SKY/WX    TMP DP  RH WIND       PRES   REMARKS
MANITOWISH WTR CLOUDY    39  39 100 NE9       30.06R WCI  33          
ARBOR VITAE    LGT RAIN  42  39  92 NE5       30.05S                  
WOODRUFF       LGT RAIN  42  39  92 NE5       30.05S                  
RHINELANDER    LGT RAIN  45  37  73 NE6       30.04R                  
EAGLE RIVER    CLOUDY    41  40  97 E8        30.06R                  
LAND O LAKES   CLOUDY    41  41 100 NE5       30.08S                  
PHILLIPS       DRIZZLE   41  41 100 NE10      30.00F                  
TOMAHAWK       RAIN      43  36  78 N6        30.03R                  
MEDFORD        CLOUDY    46  35  66 E10       29.95F                  
MERRILL        FAIR      47  39  74 NE6       30.00F                  
$$
 
WIZ029-030-035-036-043>047-221500-
CENTRAL WISCONSIN
  
CITY           SKY/WX    TMP DP  RH WIND       PRES   REMARKS
WAUSAU         NOT AVBL                                               
MOSINEE        PTSUNNY   46  36  66 NE12      29.98F                  
MARSHFIELD     FAIR      48  37  65 E13       29.95F                  
STEVENS POINT  FAIR      46  35  63 E10       29.97F                  
WAUPACA        FAIR      51  38  62 E8        29.99F                  
WAUTOMA        FAIR      50  39  66 NE8       29.98F                  
WISC RAPIDS      N/A     49  34  56 MISG      29.97F                  
CAMP DOUGLAS   NOT AVBL                                               
$$
 
WIZ011>013-019>022-031-037>040-048>050-221500-
NORTHEAST WISCONSIN
  
CITY           SKY/WX    TMP DP  RH WIND       PRES   REMARKS
ANTIGO         DRIZZLE   45  36  71 E3        30.03R                  
SHAWANO        FAIR      49  38  66 E8        30.03S                  
OCONTO         CLOUDY    46  36  67 E3        30.04R                  
STURGEON BAY   FAIR      47  39  74 SE8       30.04S                  
GREEN BAY      FAIR      50  39  66 NE9       30.02F                  
MANITOWOC      FAIR      50  39  66 SE9       30.02F                  
APPLETON       PTSUNNY   48  34  57 NE9       29.99F                  
CLINTONVILLE   PTSUNNY   50  36  59 NE7       30.00F                  
OSHKOSH        FAIR      48  40  73 NE10      29.98F                  
$$
 
WIZ032>034-041-042-053>061-221500-
SOUTHWEST WISCONSIN
  
CITY           SKY/WX    TMP DP  RH WIND       PRES   REMARKS
LA CROSSE      FAIR      68  46  45 E8        29.86F                  
SPARTA         FAIR      63  47  57 E8        29.91F                  
VIROQUA        FAIR      64  48  56 SE10      29.90S                  
BOSCOBEL       FAIR      68  48  48 VRB3      29.90F                  
PRAIRIE DU CHI FAIR      67  47  48 SE9       29.87F                  
PLATTEVILLE    FAIR      65  51  60 SE13      29.93F                  
$$

WIZ056-057-062-063-064-067-068-221500-
SOUTH CENTRAL WISCONSIN
  
CITY           SKY/WX    TMP DP  RH WIND       PRES   REMARKS
REEDSBURG      FAIR      64  47  53 S5        29.93F                  
BARABOO/DELLS  FAIR      62  44  51 SE7       29.94F                  
LONE ROCK      FAIR      65  48  54 E7        29.92F                  
MINERAL POINT  FAIR      63  50  63 SE14      29.94F                  
MADISON        PTSUNNY   61  45  55 S9        29.95F                  
MIDDLETON      FAIR      61  45  55 S6        29.96F                  
WATERTOWN      FAIR      62  46  54 S10       29.98S                  
MONROE         FAIR      62  46  55 MISG      29.95F                  
JANESVILLE     PTSUNNY   63  45  51 S13       29.99F                  
$$
 
WIZ051-052-058>065-066-070>072-221500-
SOUTHEAST WISCONSIN
  
CITY           SKY/WX    TMP DP  RH WIND       PRES   REMARKS
MILWAUKEE      PTSUNNY   62  43  49 S9        30.01F                  
WAUKESHA       SUNNY     63  43  48 S14       30.01S                  
MILWAUKEE/TIMM SUNNY     63  39  42 S9        30.01F                  
RACINE         FAIR      56  39  53 SE10      30.04S                  
KENOSHA        FAIR      67  46  47 S12G23    30.02S                  
FOND DU LAC    FAIR      56  45  66 NE6       29.98F                  
SHEBOYGAN      FAIR      53  41  63 S5        30.01S                  
WEST BEND      FAIR      61  41  48 S5        30.00S                  
JUNEAU         FAIR      62  45  54 S13       30.00S                  
$$

LSZ147-162-221500-
LAKE SUPERIOR
  
STATION/POSITION TIME  TEMP    WIND        PRES    WAVE
                       AIR SEA DIR/SP/G            HT/PER
                 (UTC) (F)     (DEG/KT/KT) (MB)    (FT/S)
$$
 
LMZ867-665-643>646-221500-
LAKE MICHIGAN
  
STATION/POSITION TIME  TEMP    WIND        PRES    WAVE
                       AIR SEA DIR/SP/G            HT/PER
                 (UTC) (F)     (DEG/KT/KT) (MB)    (FT/S)
NORTHPORT PIER   1340   44     160/  4/  8 1017.3S
KEWAUNEE LAKESHO 1324   42     160/  8/  9 1016.2
SHEBOYGAN LAKESH 1300   42     170/ 10/ 12 1016.9R
MILWAUKEE LAKESH 1340   44                   N/A
KENOSHA   LAKESH 1300   45     160/ 13/ 15 1016.9
$$

TC  - TEMPERATURE IN CELSIUS
VSB - VISIBILITY IN STATUTE MILES
WCI - WIND CHILL INDEX
HX  - HEAT INDEX